Weather in Wlodawa

Poland     51°32′53″N   23°32′58″E
temp.,
°C
wind,
m/s
gust,
m/s
humid.,
%
clouds,
%
prec.,
mm/h
press.,
hPa
HPBL,
m
17 may, tue
tue1723:00+10n116491 0.0 102010
02:00+10wsw2264100 0.0 101931
05:00+8nnw2576100 0.0 1019119
08:00+11n465148 0.0 1019463
11:00+14n5636100 0.0 10201032
14:00+15nnw5835100 0.0 10191595
17:00+13n69395 0.0 10191887
20:00+10nnw510584 0.0 1020785
18 may, wed
wed1823:00+6nnw410670 0.0 1022534
02:00+4nnw310760 0.0 1024307
05:00+2nw411810 0.0 1025334
08:00+8nnw58570 0.0 1027676
11:00+12nnw57432 0.0 10281288
14:00+15nnw57390 0.0 10281507
17:00+15nnw57414 0.0 10271516
20:00+10nw22690 0.0 102833
19 may, thu
thu1923:00+7wnw22740 0.0 102915
02:00+6w22775 0.0 102924
05:00+5wsw23775 0.0 103042
08:00+13wsw34525 0.0 1029414
11:00+18w343319 0.0 10281201
14:00+20w34315 0.0 10271492
17:00+20wsw343694 0.0 10251256
20:00+14ssw226090 0.0 102514
20 may, fri
fri2023:00+12ssw3466100 0.0 102465
02:00+11ssw3975100 0.0 1023162
05:00+10sw3881100 0.0 1022149
08:00+16sw4862100 0.0 1021320
11:00+21wsw684685 0.0 1019987
14:00+24w584491 0.0 10181335
17:00+25w585096 0.0 10161672
20:00+19sw3682100 0.1 1014113
21 may, sat
sat2123:00+16ssw3798100 2.4 1013150
02:00+16sw51496100 3.5 1011448
05:00+15sw41296100 1.9 1009577
08:00+16w81496100 3.6 10081037
11:00+19wnw8118132 0.7 10101118
14:00+18wnw6107855 2.1 10101233
17:00+18nw59736 1.1 10111280
20:00+14wnw410905 2.3 1011432